User: anonymous   Login
Location: Newark
(44.9333°N, 0.5667°E)
Time: 22:17:39
(UTC+00:00)
Language:

XW-2A - Orbit

View from above orbital plane
View from above orbital plane
View from above satellite
View from above satellite

Ground track
Ground track

The orbit data is extracted from the following two-line orbital elements,

1 40903U 15049E   20052.58195519 +.00002429 +00000-0 +57645-4 0  9995
2 40903 097.3061 101.3701 0012320 334.3485 182.9283 15.42653874248456
Epoch (UTC): 21 February 2020 13:58:00
Eccentricity: 0.0012320
inclination: 97.3061°
perigee height: 430 km
apogee height: 446 km
right ascension of ascending node: 101.3701°
argument of perigee: 334.3485°
revolutions per day: 15.42653874
mean anomaly at epoch: 182.9283°
orbit number at epoch: 24845

The dashed part of the orbit path shows where the satellite is in the earth's shadow,  

DLR